AirNav   Duncan Aviation - Near you to keep you flying
 
 1182 users online  

1C5 Bolingbrook's Clow International Airport
Bolingbrook, Illinois, USA

GOING TO BOLINGBROOK?


FAA INFORMATION EFFECTIVE 19 MAY 2022

Location

FAA Identifier: 1C5
Lat/Long: 41-41-45.3000N 088-07-46.2000W
41-41.755000N 088-07.770000W
41.6959167,-88.1295000
(estimated)
Elevation: 674.9 ft. / 206 m (estimated)
Variation: 04W (2020)
Time zone: UTC -5 (UTC -6 during Standard Time)
Zip code: 60490

Airport Operations

Airport use: Open to the public
Activation date: 03/1967
Control tower: no
ARTCC: CHICAGO CENTER
FSS: KANKAKEE FLIGHT SERVICE STATION
NOTAMs facility: IKK (NOTAM-D service available)
Attendance: 0700-1800
Pattern altitude: 1504.9 ft. MSL
Wind indicator: lighted
Segmented circle: no
Lights: MIRL RY 18/36 PRESET LOW INTST DUSK-DAWN TO INCR INTST - CTAF
Beacon: white-green (lighted land airport)
Operates sunset to sunrise.

Airport Communications

CTAF: 122.9
CHICAGO APPROACH: 119.35
CHICAGO DEPARTURE: 119.35
IC: 119.35
WX AWOS-3 at LOT (5 nm S): 118.525 (815-588-4802)
WX AWOS-3 at JOT (11 nm S): 119.975 (815-730-9560)
WX ASOS at DPA (14 nm NW): PHONE 630-587-3668
WX ASOS at ARR (16 nm W): PHONE 630-466-5622
WX AWOS-3 at 06C (18 nm N): 128.275 ((847) 895-2887)
WX ASOS at MDW (18 nm E): PHONE 773-884-4424
WX ASOS at ORD (20 nm NE): PHONE 773-462-0118

Nearby radio navigation aids

VOR radial/distance  VOR name  Freq  Var
JOTr041/12.3JOLIET VOR/DME112.3002E
DPAr138/15.3DUPAGE VOR/DME108.4002E
CGTr292/27.4CHICAGO HEIGHTS VORTAC114.2002E
EONr327/29.8PEOTONE VORTAC113.2002E
OBKr196/32.5NORTHBROOK VOR/DME113.0002W

Airport Services

Fuel available: 100LL JET-A
Parking: hangars and tiedowns
Airframe service: MAJOR
Powerplant service: MAJOR
Bottled oxygen: NONE
Bulk oxygen: NONE

Runway Information

Runway 18/36

Dimensions: 3360 x 75 ft. / 1024 x 23 m
Surface: asphalt, in good condition
Weight bearing capacity: 
Single wheel: 12.5
Runway edge lights: medium intensity
RUNWAY 18  RUNWAY 36
Latitude: 41-42.031245N41-41.478230N
Longitude: 088-07.779947W088-07.758665W
Elevation: 674.9 ft.657.0 ft.
Traffic pattern: leftleft
Runway heading: 182 magnetic, 178 true002 magnetic, 358 true
Markings: nonprecision, in good conditionnonprecision, in good condition
Touchdown point: yes, no lightsyes, no lights

Airport Ownership and Management from official FAA records

Ownership: Publicly-owned
Owner: VILLAGE OF BOLINGBROOK
375 W BRIARCLIFF ROAD
BOLINGBROOK, IL 60440
Phone 630-226-8400
Manager: JOSEPH DE PAULO
130 S CLOW INTL PARKWAY
BOLINGBROOK, IL 60490
Phone 630-378-0479
EMAIL ADDRESS: JOEDEPAULO@GMAIL.COM

Airport Operational Statistics

Aircraft based on the field: 59
Single engine airplanes: 54
Multi engine airplanes: 4
Helicopters: 1
    
Aircraft operations: avg 137/day *
52% local general aviation
44% transient general aviation
4% air taxi
* for 12-month period ending 31 July 2020

Additional Remarks

A30A-18 USE RWY 18 IN CALM WND OR DRCT CROSSWINDS.
TWY 20 FT WIDE; LARGE ACFT CONSIDER BACK-TAXI.
NO TGL; FULL STOP LDG ONLY.
FOR CD CTC CHICAGO APCH AT 847-289-0926.
FLT SCHOOL OPS ONLY - 123.50.
WILDLIFE ON AND INVOF ARPT.
RESTAURANT ON ARPT.

Instrument Procedures

NOTE: All procedures below are presented as PDF files. If you need a reader for these files, you should download the free Adobe Reader.

NOT FOR NAVIGATION. Please procure official charts for flight.
FAA instrument procedures published for use from 19 May 2022 at 0901Z to 16 June 2022 at 0900Z.

 
IAPs - Instrument Approach Procedures
RNAV (GPS)-B   download (174KB)
VOR-A   download (181KB)
NOTE: Special Take-Off Minimums/Departure Procedures apply   download (369KB)

Other nearby airports with instrument procedures:

KLOT - Lewis University Airport (5 nm S)
KDPA - DuPage Airport (14 nm NW)
KARR - Aurora Municipal Airport (16 nm W)
KMDW - Chicago Midway International Airport (18 nm E)
KORD - Chicago O'Hare International Airport (20 nm NE)
 
Loc | Ops | Rwys | IFR | FBO | Links
Com | Nav | Svcs | Stats | Notes
Area around 1C5 (Bolingbrook's Clow International Airport)
 
Road maps at: MapQuest Bing Google
 
Aerial photo
WARNING: Photo may not be current or correct
Aerial photo of 1C5 (Bolingbrook's Clow International Airport)
Taken in 2016
looking southeast.

Do you have a better or more recent aerial photo of Bolingbrook's Clow International Airport that you would like to share? If so, please send us your photo.

 
Sectional chart

 
Airport distance calculator
Flying to Bolingbrook's Clow International Airport? Find the distance to fly.

From to 1C5

Sunrise and sunset
Times for 21-May-2022
 Local
(UTC-5)
 Zulu
(UTC)
Morning civil twilight04:5609:56
Sunrise05:2810:28
Sunset20:1001:10
Evening civil twilight20:4201:42

Current date and time
Zulu (UTC)  21-May-2022 17:59:20
Local (UTC-5)  21-May-2022 12:59:20
 
METAR
KLOT 
5nm S 
211735Z AUTO 32003KT 5SM RA BKN019 BKN033 OVC080 13/12 A3008 RMK AO2 P0004 T01300115
KJOT 
11nm S 
211735Z AUTO 00000KT 7SM RA BKN013 BKN032 OVC080 15/13 A3008 RMK AO2 P0003 T01450125
KDPA 
14nm N 
211752Z 20006KT 5SM -RA BR SCT015 SCT040 OVC095 13/11 A3005 RMK AO2 SLP175 P0005 60020 T01330111 10161 20128 53015
KARR 
16nm W 
211752Z 21004KT 2 1/2SM RA BR SCT012 BKN041 OVC100 13/12 A3006 RMK AO2 LTG DSNT S SLP178 P0006 60023 T01280117 10156 20128 53015
K06C 
18nm N 
211735Z AUTO 00000KT 7SM BKN075 OVC090 14/12 A3002 RMK AO2 P0002 T01350117
KMDW 
18nm E 
211753Z 00000KT 10SM -RA SCT044 BKN060 BKN090 OVC250 16/12 A3007 RMK AO2 SLP178 P0003 60004 T01560122 10178 20150 53021 $
KORD 
19nm NE 
211751Z 21006KT 5SM RA BR FEW065 BKN085 OVC100 13/11 A3005 RMK AO2 SLP176 P0006 60020 T01330111 10167 20128 53017
TAF
KDPA 
14nm N 
211442Z 2115/2212 VRB06KT 6SM -SHRA VCTS SCT040 OVC070CB TEMPO 2116/2118 4SM -TSRA OVC040CB FM211800 34007KT P6SM -SHRA SCT030 BKN050 TEMPO 2122/2202 5SM -RA BR BKN030 FM220600 32010KT P6SM FEW030 BKN050
KMDW 
18nm E 
211427Z 2114/2218 19006KT P6SM VCSH SCT080 OVC150 FM211530 30006KT 6SM -SHRA VCTS SCT040 OVC070CB TEMPO 2116/2118 4SM -TSRA OVC040CB FM211800 34007KT P6SM -SHRA SCT030 BKN050 FM212200 03010KT 6SM -SHRA BKN020 TEMPO 2123/2203 5SM -RA BR OVC020 FM220600 32011G18KT P6SM FEW020 BKN050
KORD 
19nm NE 
211427Z 2114/2218 19006KT P6SM VCSH SCT080 OVC150 FM211530 VRB06KT 6SM -SHRA VCTS SCT040 OVC070CB TEMPO 2116/2118 4SM -TSRA OVC040CB FM211800 34007KT P6SM -SHRA SCT030 BKN050 FM212200 03008KT 6SM -SHRA SCT020 BKN035 TEMPO 2123/2203 5SM -RA BR BKN020 FM220600 32011G18KT P6SM FEW020 BKN050
NOTAMs
Click for the latest NOTAMs
NOTAMs are issued by the DoD/FAA and will open in a separate window not controlled by AirNav.

 

 
 

FBO, Fuel Providers, and Aircraft Ground Support

  
 Business Name 
 
 Contact 
 
 Services / Description 
 
Fuel Prices
 
Comments
  
JW Aviation 630-759-1555
[web site]
[email]
Aviation fuel, Aircraft parking (ramp or tiedown), Hangars, Flight training, Aircraft rental, Aerial tours / aerial sightseeing, Pilot supplies, Flying club, ...

More info about JW Aviation
Phillips 66
100LL Jet A
FS $6.83 $6.00 
SS $6.33 $5.50 
 Updated 11-May-2022
 
   3 read write
FS=Full service
SS=Self service
Update Fuel Prices
 

Aviation Businesses, Services, and Facilities

  
 Business Name 
 
 Contact 
 
 Services / Description 
 
Distance
 
Comments
  
 Center for Aviation Services
630-914-5985
[web site]
[email]
Aircraft maintenance, Avionics sales and service, Aircraft modifications, Aircraft cleaning / washing / detailing, Aircraft parts, Aviation accessories, Aircraft sales / leasing / brokerage, ...
 
FAA-Approved Repair Station  
 
More info about Center for Aviation Services
on airport  
   1 read write
 

Where to Eat: Catering, Restaurants, Food shops

  
 Business Name 
 
 Contact 
 
 Services / Description 
 
Distance
 
Comments
  
Charlie's at 1C5 630-771-0501
no information available

If you are affiliated with Charlie's at 1C5 and would like to show here your services, contact info, web link, logo, and more, click here
on airport  
   1 read write
 

Would you like to see your business listed on this page?

 If your business provides an interesting product or service to pilots, flight crews, aircraft, or users of the Bolingbrook's Clow International Airport, you should consider listing it here.  To start the listing process, click on the button below
 
Add a business
 

Other Pages about Bolingbrook's Clow International Airport

bbclowairport.com
 
Update a link
 
Copyright © AirNav, LLC. All rights reserved. Privacy Policy  Contact